Location: Mason Neck State Park
(38.6428°N, 77.1981°W)
Time: 23:31:25
(UTC-05:00)

Daily predictions for brighter satellites

Satellite Brightness Start Highest point End
(mag) Time Altitude Azimuth Time Altitude Azimuth Time Altitude Azimuth
NOSS 2-2 (C) 4.0 18:17:14 10° SW 18:21:12 62° NW 18:25:43 10° NNE
Cosmos 2151 Rocket 4.3 18:17:34 10° SSE 18:21:32 32° E 18:25:33 10° NNE
Cosmos 2322 Rocket 2.5 18:17:04 10° N 18:22:26 44° ENE 18:27:45 10° SE
Cosmos 1340 4.4 18:21:27 10° NE 18:23:37 15° ENE 18:25:47 10° ESE
Cosmos 1461 3.9 18:20:25 10° N 18:23:45 25° NE 18:27:09 10° ESE
Meteor 1-28 Rocket 3.3 18:26:48 10° N 18:30:37 83° WNW 18:34:25 10° SSW
DELTA 2 R/B (1) 3.7 18:25:54 10° W 18:31:32 80° N 18:36:54 11° E
SL-8 R/B 3.9 18:28:21 10° WNW 18:33:10 74° SW 18:37:59 10° SE
Okean 1 3.9 18:29:45 10° NNE 18:33:29 34° ENE 18:37:12 10° SE
Cosmos 1992 Rocket 4.1 18:30:38 10° NNW 18:35:53 87° WSW 18:41:07 10° SSE
FREGAT/IRIS 3.1 18:33:46 10° SE 18:36:39 38° ENE 18:39:34 10° N
Cosmos 407 Rocket 3.6 18:32:11 10° S 18:37:18 58° ESE 18:42:30 10° NNE
Cosmos 676 Rocket 4.4 18:33:24 10° S 18:38:11 39° ESE 18:43:01 10° NE
ALOS 2.8 18:37:20 10° SE 18:41:34 36° ENE 18:45:49 10° N
Meteor 1-25 Rocket 4.2 18:36:20 10° S 18:41:55 84° E 18:47:37 10° N
ERBS 3.8 18:39:06 10° WNW 18:42:22 39° SW 18:45:37 10° SSE
FENGYUN 3A 4.1 18:38:15 10° SE 18:43:14 39° ENE 18:48:15 10° N
Cosmos 1346 Rocket 4.3 18:39:47 10° NNW 18:43:31 41° W 18:47:10 10° SSW
COSMOS 2428 4.4 18:41:37 10° NNE 18:44:20 13° NE 18:45:51 12° ENE
deb Kosmos-1763 4.2 18:45:37 10° SSW 18:49:25 84° WNW 18:53:13 10° NNE
Cosmos 1975 Rocket 4.1 18:45:36 10° NNW 18:49:46 48° W 18:53:55 10° SSW
H-2A R/B 3.8 18:46:50 10° SE 18:49:49 23° ENE 18:52:49 10° NNE
Meteor 1-11 Rocket 4.3 18:48:17 10° SSE 18:53:29 37° E 18:58:48 10° NNE
Cosmos 1238 Rocket 3.2 18:53:32 10° NNE 18:55:56 24° ENE 18:55:56 24° ENE
Cosmos 1812 3.1 18:55:27 10° NNW 18:59:17 67° W 19:03:06 10° S
Helios 1B rocket 3.7 19:02:25 22° ESE 19:02:25 22° ESE 19:05:07 10° SSE
Cosmos 1190 Rocket 4.3 18:56:43 10° SSW 19:01:53 70° WNW 19:07:05 10° NNE
Cosmos 1140 Rocket 3.8 19:00:37 10° S 19:05:25 42° ESE 19:10:15 10° NNE
Cosmos 1536 Rocket 3.5 19:04:11 10° N 19:08:40 78° E 19:13:08 10° S
Cosmos 2219 4.2 19:04:27 10° SSE 19:08:54 24° E 19:09:25 23° E
SAR-Lupe-4 4.4 19:11:27 30° ENE 19:11:27 30° ENE 19:14:17 10° N
Spot 2 Rocket 3.5 19:07:25 10° SSE 19:12:20 57° ENE 19:17:19 10° N
Resurs 01 Rocket 1.6 19:10:49 10° SSE 19:15:10 62° ENE 19:19:32 10° N
Cosmos 2360 Rocket 2.4 19:09:54 10° N 19:15:21 46° ENE 19:18:45 22° SE
DNEPR-1 R/B 3.5 19:11:50 10° NW 19:16:03 78° WSW 19:20:17 10° SSE
GEOS 3 Rocket 4.0 19:13:06 10° NNE 19:18:18 67° NW 19:23:32 10° SW
Cosmos 2219 Rocket 4.0 19:15:46 10° NNE 19:17:49 13° NE 19:17:49 13° NE
Cosmos 614 Rocket 4.2 19:15:23 10° S 19:20:11 43° ESE 19:23:32 18° NE
Cosmos 2181 Rocket 3.9 19:15:00 10° N 19:21:15 72° E 19:27:32 10° SSE
Cosmos 1602 3.6 19:18:19 10° S 19:22:10 81° E 19:26:05 10° N
CENTAUR R/B 4.4 19:14:56 10° NW 19:22:19 41° WSW 19:29:58 10° S
Tiangong 2 0.8 19:19:28 10° WNW 19:22:33 78° NNE 19:22:43 74° ENE
SL-19 R/B 4.2 19:18:14 10° SSE 19:23:49 80° ENE 19:29:43 10° NNW
Envisat 4.3 19:30:10 22° NE 19:30:10 22° NE 19:32:49 10° NNE
ATLAS CENTAUR R/B 4.0 19:26:05 10° S 19:27:49 14° SSE 19:27:49 14° SSE
HJ-1C 4.0 19:26:36 10° S 19:29:55 56° W 19:33:15 10° NNW
Cosmos 1954 Rocket 4.0 19:24:57 10° SSW 19:30:08 83° WNW 19:35:23 10° NNE
BREEZE-M DEB (TANK) 4.2 19:28:51 10° NW 19:32:07 39° NE 19:33:50 32° ENE
Cosmos 1833 4.2 19:27:46 10° SSW 19:33:29 87° WNW 19:39:11 10° NNE
Cosmos 1633 3.2 19:33:30 10° SSW 19:37:07 56° W 19:40:46 10° N
Cosmos 1300 Rocket 3.8 19:35:37 10° SSW 19:39:58 68° W 19:44:24 10° N
Cosmos 2184 Rocket 4.0 19:33:55 10° SSE 19:40:03 55° E 19:46:10 10° NNE
Cosmos 2333 Rocket 4.0 19:36:27 10° NNE 19:38:33 15° NNE 19:38:33 15° NNE
Resurs 1-3 3.6 19:35:58 10° S 19:40:21 83° WSW 19:44:46 10° NNW
Cosmos 2074 Rocket 4.0 19:34:26 10° S 19:40:30 58° E 19:46:39 10° NNE
TSX-5 4.5 19:37:51 10° SW 19:40:55 41° WNW 19:41:56 30° NNW
SL-16 R/B 3.7 19:42:33 10° NW 19:47:40 36° WSW 19:52:45 10° SSW
Gbstr 26 Del rocket 3.2 19:44:26 10° SW 19:47:22 49° SSW 19:47:22 49° SSW
Meteor 1-19 Rocket 4.4 19:44:48 10° NNW 19:50:28 75° W 19:56:11 10° S
Cosmos 1340 4.5 19:56:02 10° NNW 19:59:25 31° W 20:02:47 10° SSW
Meteor 1-5 Rocket 4.2 19:54:08 10° S 20:00:03 72° E 20:05:59 10° NNE
Cosmos 1536 3.6 19:58:08 10° SSW 20:01:14 47° SW 20:01:14 47° SW
Cosmos 2322 Rocket 4.4 20:01:46 10° NW 20:06:08 24° WSW 20:10:28 10° SSW
Cosmos 2285 Rocket 4.4 20:00:25 10° N 20:05:48 47° NE 20:05:48 47° NE
Okean 1 Rocket 4.2 20:04:39 10° SSW 20:08:55 43° W 20:13:12 10° N
Cosmos 1741 Rocket 4.0 20:03:41 10° SSW 20:08:55 81° WNW 20:09:41 65° N
Helios 1A 3.8 20:11:47 49° WNW 20:11:47 49° WNW 20:15:12 10° NNW
Cosmos 2322 4.1 20:11:50 10° NNW 20:17:29 61° WSW 20:18:56 46° SSW
DELTA 2 R/B (1) 3.7 20:12:27 10° W 20:17:41 68° SW 20:17:41 68° SW
Meteor 1-23 Rocket 4.3 20:12:22 10° NNW 20:18:11 75° W 20:19:24 56° SSW
ATLAS 2A CENTAUR R/B 4.1 20:15:33 10° SW 20:18:32 22° S 20:18:32 22° S
Cosmos 1570 Rocket 4.4 20:17:23 10° NNW 20:21:42 59° NW 20:21:42 59° NW
COSMOS 2428 3.2 20:23:44 10° NNW 20:27:56 51° NNW 20:27:56 51° NNW
Cosmos 2237 4.5 20:24:23 10° NNW 20:29:26 65° WNW 20:29:26 65° WNW
Cosmos 2237 Rocket 4.3 20:36:36 10° N 20:37:59 17° N 20:37:59 17° N
Cosmos 2219 4.3 20:47:13 10° SW 20:51:30 40° W 20:51:30 40° W
Cosmos 2360 Rocket 4.2 20:54:40 10° NW 20:58:58 23° W 21:00:38 20° SW
Cosmos 2219 Rocket 4.1 20:57:41 10° NNW 20:59:35 22° NNW 20:59:35 22° NNW
